Pontiac, MI

12:58 AM EST on November 18, 2019 (GMT -0500)
Oakland County International

Weather History for KPTK - June, 2019

Change the Weather History Date:

Saturday, June 8, 2019

  Actual Average Record
Temperature  
Mean Temperature 68 °F -  
Max Temperature 80 °F 73 °F 93 °F (2011)
Min Temperature 57 °F 53 °F 44 °F (1998)
Cooling Degree Days 3    
Growing Degree Days 18 (Base 50)    
Moisture  
Dew Point 48 °F    
Average Humidity 49    
Maximum Humidity 74    
Minimum Humidity 29    
Precipitation  
Precipitation 0.00 in - - ()
Sea Level Pressure  
Sea Level Pressure 30.06 in    
Wind  
Wind Speed 9 mph (East)    
Max Wind Speed 17 mph    
Max Gust Speed 24 mph    
Visibility 10 miles    
Events      
Averages and records for this station are not official NWS values.
T = Trace of Precipitation, MM = Missing Value Source: NWS Daily Summary

Daily Weather History Graph

Daily Weather History Graph

Search for Another Location

Airport or City:

Astronomy

Jun. 08, 2019 Rise Set
Actual Time 5:55 AM EDT 9:09 PM EDT
Civil Twilight 5:21 AM EDT 9:44 PM EDT
Nautical Twilight 4:36 AM EDT 10:29 PM EDT
Astronomical Twilight 3:42 AM EDT 11:23 PM EDT
Moon 11:25 AM EDT (6/8) 1:08 AM EDT (6/8)
Length of Visible Light 16h 23m
Length of Day
15h 13m
Waxing Crescent, 32% of the Moon is Illuminated
Jun 8
Waxing Crescent
Jun 10
First Quarter
Jun 17
Full
Jun 25
Last Quarter
Jul 2
New

Hourly Weather History & Observations

Time (EDT) Temp. Dew Point Humidity Pressure Visibility Wind Dir Wind Speed Gust Speed Precip Events Conditions
12:53 AM 62.1 °F 45.0 °F 53% 30.05 in 10.0 mi NE 9.2 mph - N/A   Clear
1:53 AM 62.1 °F 46.9 °F 58% 30.04 in 10.0 mi NE 9.2 mph - N/A   Clear
2:53 AM 59.0 °F 48.0 °F 67% 30.05 in 10.0 mi ENE 9.2 mph - N/A   Clear
3:53 AM 57.0 °F 48.0 °F 72% 30.05 in 10.0 mi NE 4.6 mph - N/A   Clear
4:53 AM 57.0 °F 48.9 °F 74% 30.05 in 10.0 mi East 3.5 mph - N/A   Clear
5:53 AM 57.0 °F 48.0 °F 72% 30.06 in 10.0 mi East 4.6 mph - N/A   Scattered Clouds
6:53 AM 59.0 °F 48.9 °F 69% 30.06 in 10.0 mi ENE 4.6 mph - N/A   Scattered Clouds
7:53 AM 64.0 °F 48.9 °F 58% 30.07 in 10.0 mi East 8.1 mph - N/A   Scattered Clouds
8:53 AM 66.9 °F 50.0 °F 54% 30.09 in 10.0 mi East 10.4 mph - N/A   Scattered Clouds
9:53 AM 70.0 °F 50.0 °F 49% 30.09 in 10.0 mi East 10.4 mph 19.6 mph N/A   Mostly Cloudy
10:53 AM 72.0 °F 52.0 °F 49% 30.10 in 10.0 mi East 10.4 mph - N/A   Mostly Cloudy
11:53 AM 73.9 °F 52.0 °F 46% 30.09 in 10.0 mi East 12.7 mph 20.7 mph N/A   Mostly Cloudy
12:53 PM 77.0 °F 51.1 °F 40% 30.09 in 10.0 mi SE 13.8 mph 23.0 mph N/A   Mostly Cloudy
1:53 PM 77.0 °F 48.9 °F 37% 30.08 in 10.0 mi ESE 15.0 mph - N/A   Mostly Cloudy
2:53 PM 78.1 °F 45.0 °F 31% 30.07 in 10.0 mi East 12.7 mph 23.0 mph N/A   Mostly Cloudy
3:53 PM 79.0 °F 45.0 °F 30% 30.07 in 10.0 mi East 16.1 mph - N/A   Mostly Cloudy
4:53 PM 78.1 °F 46.0 °F 32% 30.06 in 10.0 mi ESE 17.3 mph 24.2 mph N/A   Mostly Cloudy
5:53 PM 75.9 °F 46.0 °F 35% 30.06 in 10.0 mi East 10.4 mph - N/A   Mostly Cloudy
6:53 PM 75.9 °F 41.0 °F 29% 30.06 in 10.0 mi East 12.7 mph 21.9 mph N/A   Mostly Cloudy
7:53 PM 73.9 °F 46.9 °F 38% 30.06 in 10.0 mi ESE 8.1 mph - N/A   Overcast
8:53 PM 73.0 °F 48.9 °F 42% 30.05 in 10.0 mi ESE 8.1 mph - N/A   Overcast
9:53 PM 71.1 °F 48.9 °F 45% 30.05 in 10.0 mi East 6.9 mph - N/A   Overcast
10:53 PM 71.1 °F 50.0 °F 47% 30.05 in 10.0 mi ESE 9.2 mph - N/A   Overcast
11:53 PM 69.1 °F 51.1 °F 53% 30.05 in 10.0 mi East 9.2 mph - N/A   Mostly Cloudy